�N����,����,�~����,�C��,���x,�C��,����,���ϕ���,�ő�u�ԕ���,�ő厞����,���˗�,�I�_���x,�n�����x,�ő啗���N��,DTYPE
"23/11/06","00:10",0.0,21.1,80.5,1015.9,36.2,0.7,2.5,353.9,0.00,17.7,18.0,"00:07:04",1
"23/11/06","00:20",0.0,21.3,80.0,1015.6,47.6,0.8,1.6,13.0,0.00,17.8,17.9,"00:11:36",1
"23/11/06","00:30",0.0,21.3,79.8,1015.2,56.7,0.7,2.2,98.5,0.00,17.7,18.0,"00:20:16",1
"23/11/06","00:40",0.0,21.3,79.8,1015.4,56.9,0.6,3.1,144.0,0.00,17.7,18.0,"00:36:56",1
"23/11/06","00:50",0.0,21.4,79.7,1015.2,57.0,0.7,2.7,98.9,0.00,17.8,17.7,"00:49:36",1
"23/11/06","01:00",0.0,21.4,79.6,1015.2,205.5,0.5,1.7,95.1,0.00,17.8,17.9,"00:58:40",1
"23/11/06","01:10",0.0,21.3,79.7,1015.2,247.9,0.3,1.1,160.0,0.00,17.7,17.8,"01:00:32",1
"23/11/06","01:20",0.0,21.4,79.8,1014.9,182.7,0.6,2.1,146.4,0.00,17.8,17.9,"01:16:48",1
"23/11/06","01:30",0.0,21.5,79.5,1014.9,173.2,0.7,1.9,157.3,0.00,17.8,17.9,"01:20:40",1
"23/11/06","01:40",0.0,21.5,79.3,1014.9,176.5,0.7,2.6,127.4,0.00,17.8,17.9,"01:34:08",1
"23/11/06","01:50",0.0,21.5,79.2,1014.7,219.8,0.3,1.3,163.6,0.00,17.8,18.1,"01:41:36",1
"23/11/06","02:00",0.0,21.4,79.5,1014.2,160.9,0.8,2.7,130.3,0.00,17.7,17.9,"01:57:52",1
"23/11/06","02:10",0.0,21.5,79.5,1014.2,151.9,0.8,2.5,83.7,0.00,17.8,18.0,"02:00:48",1
"23/11/06","02:20",0.0,21.5,79.3,1014.0,147.5,1.1,2.7,122.6,0.00,17.8,17.9,"02:14:32",1
"23/11/06","02:30",0.0,21.3,79.5,1014.2,210.3,0.5,1.6,138.1,0.00,17.7,18.0,"02:21:20",1
"23/11/06","02:40",0.0,21.0,80.0,1014.0,311.3,0.6,1.6,0.0,0.00,17.5,18.0,"02:30:56",1
"23/11/06","02:50",0.0,20.8,80.7,1014.0,18.6,0.5,1.6,340.2,0.00,17.4,17.9,"02:45:36",1
"23/11/06","03:00",0.0,20.5,81.4,1013.5,335.0,0.6,1.3,357.4,0.00,17.2,17.9,"02:50:56",1
"23/11/06","03:10",0.0,20.2,81.9,1013.3,328.6,0.7,1.4,336.5,0.00,17.1,17.8,"03:02:32",1
"23/11/06","03:20",0.0,20.0,82.7,1013.3,316.2,0.8,1.7,332.3,0.00,17.0,17.8,"03:12:48",1
"23/11/06","03:30",0.0,20.0,83.6,1013.5,306.9,0.7,1.6,39.4,0.00,17.2,17.9,"03:23:28",1
"23/11/06","03:40",0.0,20.1,83.7,1013.3,32.6,0.6,1.6,18.4,0.00,17.3,17.7,"03:31:04",1
"23/11/06","03:50",0.0,20.2,83.3,1013.5,1.8,0.6,1.9,93.4,0.00,17.3,18.0,"03:40:48",1
"23/11/06","04:00",0.0,20.4,82.5,1013.8,51.9,0.7,1.9,38.7,0.00,17.4,17.7,"03:53:20",1
"23/11/06","04:10",0.0,20.2,82.0,1013.8,287.0,0.6,1.1,318.3,0.00,17.1,17.7,"04:00:40",1
"23/11/06","04:20",0.0,19.9,82.0,1013.5,303.6,0.6,1.2,309.1,0.00,16.8,17.8,"04:10:56",1
"23/11/06","04:30",0.0,19.8,82.6,1013.5,289.7,0.5,1.2,305.0,0.00,16.8,17.8,"04:23:44",1
"23/11/06","04:40",0.0,20.0,82.9,1013.5,345.8,0.5,1.7,331.3,0.00,17.0,17.7,"04:34:00",1
"23/11/06","04:50",0.0,20.1,82.8,1013.3,332.4,0.5,2.1,146.8,0.00,17.1,17.7,"04:44:56",1
"23/11/06","05:00",0.0,20.1,82.8,1013.3,13.3,0.5,1.3,83.1,0.00,17.1,18.0,"04:57:44",1
"23/11/06","05:10",0.0,20.2,82.5,1013.3,50.5,0.5,2.1,127.2,0.00,17.2,17.7,"05:04:40",1
"23/11/06","05:20",0.0,20.0,82.2,1013.3,294.5,0.3,1.2,314.8,0.00,16.9,17.6,"05:12:24",1
"23/11/06","05:30",0.0,19.8,82.2,1013.3,254.0,0.5,1.4,164.4,0.00,16.7,17.7,"05:23:20",1
"23/11/06","05:40",0.0,19.3,82.6,1012.6,303.2,0.6,1.0,320.8,0.00,16.3,17.7,"05:36:48",1
"23/11/06","05:50",0.0,19.0,83.4,1013.3,281.8,0.7,1.3,299.9,0.00,16.2,17.6,"05:46:48",1
"23/11/06","06:00",0.0,18.8,84.4,1013.0,299.6,1.0,1.6,330.1,0.00,16.2,17.7,"05:58:40",1
"23/11/06","06:10",0.0,18.6,85.2,1012.8,313.8,0.5,1.1,318.5,0.00,16.1,17.6,"06:06:08",1
"23/11/06","06:20",0.0,18.2,85.9,1013.0,293.4,0.7,1.3,347.7,0.00,15.8,17.7,"06:10:02",1
"23/11/06","06:30",0.0,17.9,86.6,1013.0,316.8,1.1,1.6,322.5,0.00,15.7,17.2,"06:22:16",1
"23/11/06","06:40",0.0,17.9,87.4,1013.3,286.6,1.0,1.6,317.1,0.00,15.8,17.5,"06:30:48",1
"23/11/06","06:50",0.0,17.8,88.0,1013.0,286.9,0.7,1.4,318.4,0.00,15.8,17.6,"06:49:52",1
"23/11/06","07:00",0.0,17.8,88.4,1012.8,305.5,1.0,1.7,324.8,0.00,15.9,17.3,"06:50:40",1
"23/11/06","07:10",0.0,17.8,88.8,1012.8,297.6,0.8,1.1,321.5,0.00,16.0,17.6,"07:06:56",1
"23/11/06","07:20",0.0,17.9,89.1,1013.0,294.7,0.7,1.2,308.3,0.01,16.1,17.5,"07:10:08",1
"23/11/06","07:30",0.0,18.2,89.4,1013.0,307.6,1.0,1.4,334.9,0.02,16.5,17.6,"07:29:52",1
"23/11/06","07:40",0.0,18.9,89.5,1013.0,293.7,1.0,1.3,294.9,0.05,17.2,17.4,"07:31:20",1
"23/11/06","07:50",0.0,20.0,89.1,1012.6,300.2,0.6,1.4,321.9,0.08,18.2,17.6,"07:44:08",1
"23/11/06","08:00",0.0,20.5,87.8,1012.8,254.8,1.0,1.6,238.0,0.06,18.4,17.3,"07:56:48",1
"23/11/06","08:10",0.0,21.2,85.5,1012.6,257.0,0.6,1.7,241.0,0.08,18.7,17.6,"08:06:24",1
"23/11/06","08:20",0.0,21.8,81.8,1013.0,255.0,0.8,1.6,230.4,0.06,18.6,17.3,"08:13:52",1
"23/11/06","08:30",0.0,22.2,79.1,1012.3,259.8,0.5,2.6,119.3,0.04,18.4,17.8,"08:28:24",1
"23/11/06","08:40",0.0,22.8,75.4,1012.3,116.7,0.7,1.8,93.7,0.06,18.3,17.6,"08:37:04",1
"23/11/06","08:50",0.0,23.2,73.0,1012.1,146.6,0.6,2.2,67.1,0.07,18.1,17.6,"08:48:00",1
"23/11/06","09:00",0.0,23.6,71.4,1011.9,111.4,1.0,2.2,114.2,0.11,18.2,17.7,"08:57:52",1
"23/11/06","09:10",0.0,23.9,70.1,1011.6,102.5,1.2,3.3,125.2,0.11,18.2,17.7,"09:03:04",1
"23/11/06","09:20",0.0,24.3,69.0,1011.6,128.0,1.0,3.4,145.8,0.12,18.3,17.7,"09:14:16",1
"23/11/06","09:30",0.0,24.2,68.5,1011.4,102.9,1.1,3.1,165.5,0.09,18.1,18.0,"09:20:56",1
"23/11/06","09:40",0.0,24.3,68.7,1011.6,121.2,0.8,2.8,90.3,0.09,18.2,17.8,"09:30:40",1
"23/11/06","09:50",0.0,24.1,69.4,1011.2,145.6,0.8,2.2,112.9,0.06,18.2,18.0,"09:45:20",1
"23/11/06","10:00",0.0,24.0,70.4,1010.9,83.2,1.0,2.6,1.3,0.05,18.3,17.9,"09:51:52",1
"23/11/06","10:10",0.0,23.9,71.0,1010.7,111.4,0.8,1.6,1.6,0.07,18.4,17.9,"10:00:24",1
"23/11/06","10:20",0.0,24.1,70.9,1010.7,121.6,1.0,2.4,46.0,0.08,18.5,18.0,"10:10:56",1
"23/11/06","10:30",0.0,24.1,71.0,1010.4,109.8,0.8,2.0,102.1,0.06,18.6,17.9,"10:27:28",1
"23/11/06","10:40",0.0,24.0,71.0,1010.4,145.3,1.2,3.1,185.8,0.06,18.5,17.9,"10:31:52",1
"23/11/06","10:50",0.0,24.1,71.1,1010.4,139.1,1.2,2.5,117.7,0.07,18.6,18.2,"10:40:48",1
"23/11/06","11:00",0.0,24.4,71.2,1009.7,128.8,1.1,2.6,100.8,0.10,18.9,18.1,"10:50:40",1
"23/11/06","11:10",0.0,24.6,70.3,1010.0,126.0,1.1,3.1,104.5,0.12,18.9,18.1,"11:01:52",1
"23/11/06","11:20",0.0,24.6,70.0,1009.7,138.2,1.5,3.3,133.3,0.10,18.8,18.4,"11:13:12",1
"23/11/06","11:30",0.0,24.4,70.0,1009.3,117.6,1.2,2.9,107.4,0.08,18.6,18.4,"11:20:48",1
"23/11/06","11:40",0.0,24.4,69.8,1009.3,135.5,1.3,3.5,122.2,0.08,18.6,18.2,"11:32:24",1
"23/11/06","11:50",0.0,24.4,69.3,1008.8,125.5,1.5,3.6,194.6,0.07,18.5,18.1,"11:44:32",1
"23/11/06","12:00",0.0,24.4,69.0,1009.0,137.9,1.2,2.5,78.8,0.07,18.4,18.4,"11:53:44",1
"23/11/06","12:10",0.0,24.3,68.4,1008.8,155.8,1.6,4.1,106.2,0.08,18.2,18.4,"12:01:04",1
"23/11/06","12:20",0.0,24.4,68.7,1008.6,150.5,1.5,4.0,156.1,0.08,18.3,18.5,"12:13:12",1
"23/11/06","12:30",0.0,24.6,68.4,1007.8,136.7,1.7,3.6,125.6,0.10,18.4,18.5,"12:22:24",1
"23/11/06","12:40",0.0,24.7,68.3,1008.3,130.5,1.5,3.4,136.5,0.10,18.5,18.3,"12:38:16",1
"23/11/06","12:50",0.0,24.7,68.6,1007.4,156.9,1.2,2.7,109.4,0.10,18.6,18.4,"12:40:32",1
"23/11/06","13:00",0.0,24.8,68.3,1007.8,148.4,1.1,2.7,158.2,0.09,18.6,18.5,"12:57:28",1
"23/11/06","13:10",0.0,24.4,69.1,1007.8,154.2,1.5,4.0,119.5,0.02,18.4,18.4,"13:06:00",1
"23/11/06","13:20",0.0,24.2,71.8,1007.8,156.1,1.0,2.4,164.0,0.02,18.8,18.4,"13:14:16",1
"23/11/06","13:30",0.0,23.9,72.4,1007.8,164.2,1.0,2.2,128.4,0.02,18.7,18.5,"13:23:28",1
"23/11/06","13:40",0.0,23.9,72.5,1007.8,134.1,1.2,3.2,128.0,0.00,18.7,18.6,"13:30:08",1
"23/11/06","13:50",0.2,23.3,75.6,1007.8,156.6,1.0,2.9,166.4,0.01,18.8,18.4,"13:43:52",1
"23/11/06","14:00",0.0,23.0,78.1,1008.1,225.3,0.6,1.4,102.0,0.00,19.0,18.4,"13:51:04",1
"23/11/06","14:10",0.2,22.6,80.7,1008.3,243.4,1.2,2.1,244.1,0.01,19.2,18.7,"14:02:24",1
"23/11/06","14:20",0.6,22.3,82.5,1007.8,204.4,1.0,4.8,170.3,0.05,19.2,18.6,"14:18:56",1
"23/11/06","14:30",0.0,21.9,84.5,1007.8,174.9,1.7,4.4,211.1,0.09,19.2,18.7,"14:26:00",1
"23/11/06","14:40",0.2,21.8,85.8,1007.8,175.8,1.0,2.5,130.9,0.07,19.4,18.7,"14:31:04",1
"23/11/06","14:50",0.2,21.7,86.7,1007.8,190.5,1.1,2.0,134.2,0.03,19.4,18.7,"14:43:20",1
"23/11/06","15:00",0.0,21.4,87.4,1008.1,182.5,0.7,2.2,127.8,0.02,19.3,18.6,"14:58:56",1
"23/11/06","15:10",0.4,21.2,88.1,1007.8,158.7,1.1,2.6,193.3,0.02,19.2,18.6,"15:07:20",1
"23/11/06","15:20",0.0,21.2,88.8,1007.8,179.0,0.7,1.9,150.8,0.03,19.3,18.7,"15:14:16",1
"23/11/06","15:30",0.4,21.2,89.3,1008.3,216.2,0.6,1.6,221.3,0.01,19.4,18.7,"15:24:40",1
"23/11/06","15:40",0.2,21.1,90.0,1008.1,218.6,0.3,1.4,206.1,0.01,19.4,18.5,"15:30:16",1
"23/11/06","15:50",0.6,20.9,90.4,1007.6,217.6,0.3,1.2,187.6,0.00,19.3,18.7,"15:42:00",1
"23/11/06","16:00",0.4,20.7,90.7,1008.1,112.0,0.5,1.1,102.4,0.00,19.2,18.7,"15:54:40",1
"23/11/06","16:10",0.6,20.6,91.0,1008.1,130.3,0.2,0.6,62.4,0.00,19.1,18.8,"16:07:36",1
"23/11/06","16:20",0.4,20.6,91.3,1008.3,357.6,0.2,0.9,315.4,0.00,19.2,18.7,"16:10:02",1
"23/11/06","16:30",0.2,20.4,91.5,1007.6,314.1,0.3,0.8,292.2,0.00,19.0,18.7,"16:20:16",1
"23/11/06","16:40",0.6,20.4,91.7,1007.8,214.7,0.3,0.8,171.2,0.00,19.0,18.4,"16:38:00",1
"23/11/06","16:50",0.6,20.3,92.0,1007.8,191.9,0.3,0.9,161.4,0.00,19.0,18.7,"16:49:52",1
"23/11/06","17:00",0.6,20.4,92.3,1008.1,186.5,0.7,1.2,167.5,0.00,19.1,18.7,"16:57:12",1
"23/11/06","17:10",0.4,20.3,92.5,1007.8,193.8,0.7,1.3,199.2,0.00,19.1,18.8,"17:06:12",1
"23/11/06","17:20",0.0,20.1,92.7,1007.6,184.4,0.6,1.2,225.8,0.00,18.9,18.8,"17:11:44",1
"23/11/06","17:30",0.4,20.2,93.0,1007.4,177.2,0.6,1.3,225.3,0.00,19.1,18.9,"17:20:02",1
"23/11/06","17:40",0.0,20.2,93.2,1007.6,226.6,0.8,1.8,225.7,0.00,19.1,18.7,"17:31:28",1
"23/11/06","17:50",0.2,20.2,93.3,1007.4,279.4,0.5,1.1,338.1,0.00,19.1,18.7,"17:41:36",1
"23/11/06","18:00",0.0,20.3,93.5,1007.8,253.4,0.5,1.7,263.8,0.00,19.3,18.7,"17:59:36",1
"23/11/06","18:10",0.0,20.2,93.6,1007.1,295.7,0.5,1.4,331.9,0.00,19.2,18.6,"18:02:48",1
"23/11/06","18:20",0.0,20.2,93.7,1007.6,292.8,0.7,1.6,292.8,0.00,19.2,18.7,"18:13:20",1
"23/11/06","18:30",0.0,20.2,93.9,1007.4,312.6,0.2,1.0,337.8,0.00,19.2,18.8,"18:23:44",1
"23/11/06","18:40",0.0,20.3,94.1,1007.1,286.5,0.8,1.4,321.1,0.00,19.4,18.9,"18:33:04",1
"23/11/06","18:50",0.0,20.3,94.3,1007.4,275.6,1.5,2.7,238.5,0.00,19.4,18.9,"18:43:52",1
"23/11/06","19:00",0.0,20.2,94.3,1007.1,278.6,0.5,1.6,331.0,0.00,19.3,18.5,"18:52:16",1
"23/11/06","19:10",0.0,20.3,94.4,1007.4,320.5,0.5,1.3,330.2,0.00,19.4,18.7,"19:06:40",1
"23/11/06","19:20",0.0,20.2,94.6,1007.8,353.0,0.6,1.3,340.4,0.00,19.3,18.5,"19:12:40",1
"23/11/06","19:30",0.0,20.2,94.7,1007.4,331.4,0.6,1.1,328.9,0.00,19.4,18.6,"19:28:00",1
"23/11/06","19:40",0.0,20.1,94.9,1007.1,317.2,0.7,1.3,294.9,0.00,19.3,18.6,"19:31:52",1
"23/11/06","19:50",0.0,20.1,95.0,1006.7,323.9,0.7,1.6,331.3,0.00,19.3,18.7,"19:49:36",1
"23/11/06","20:00",0.0,20.0,95.0,1006.7,305.1,0.5,1.3,314.2,0.00,19.2,18.8,"19:53:28",1
"23/11/06","20:10",0.0,20.0,95.2,1007.1,314.7,0.8,1.3,330.4,0.00,19.2,18.8,"20:02:08",1
"23/11/06","20:20",0.0,19.9,95.3,1006.7,313.0,0.5,1.6,322.2,0.00,19.2,18.8,"20:11:20",1
"23/11/06","20:30",0.0,19.7,95.3,1006.7,279.8,0.3,1.1,331.5,0.00,19.0,18.9,"20:29:52",1
"23/11/06","20:40",0.0,19.7,95.5,1006.9,313.9,0.8,1.3,340.8,0.00,19.0,18.7,"20:32:48",1
"23/11/06","20:50",0.0,19.6,95.6,1006.7,282.5,0.6,1.1,262.8,0.00,18.9,18.8,"20:45:44",1
"23/11/06","21:00",0.0,19.6,95.7,1006.7,319.4,1.0,1.4,316.6,0.00,18.9,18.6,"20:51:20",1
"23/11/06","21:10",0.0,19.5,95.7,1006.2,338.3,0.6,1.2,349.7,0.00,18.8,18.7,"21:09:44",1
"23/11/06","21:20",0.0,19.4,95.8,1006.4,323.9,1.0,1.2,336.0,0.00,18.8,18.7,"21:16:16",1
"23/11/06","21:30",0.0,19.2,95.9,1006.2,283.9,0.5,1.0,353.3,0.00,18.6,18.6,"21:22:40",1
"23/11/06","21:40",0.0,19.1,95.9,1006.4,303.6,0.6,1.1,237.5,0.00,18.5,18.7,"21:38:08",1
"23/11/06","21:50",0.0,19.0,96.1,1006.0,275.6,0.3,1.4,338.3,0.00,18.4,18.4,"21:40:02",1
"23/11/06","22:00",0.0,19.1,96.2,1005.5,325.3,1.0,1.9,336.0,0.00,18.5,18.5,"21:53:52",1
"23/11/06","22:10",0.0,19.0,96.2,1005.7,259.9,0.3,1.1,331.4,0.00,18.4,18.5,"22:00:32",1
"23/11/06","22:20",0.0,19.1,96.3,1006.0,318.1,0.3,0.8,246.8,0.00,18.5,18.6,"22:17:12",1
"23/11/06","22:30",0.0,19.1,96.4,1005.7,312.5,0.5,0.9,331.3,0.00,18.6,18.2,"22:22:16",1
"23/11/06","22:40",0.0,19.1,96.4,1005.7,283.6,0.3,0.9,232.4,0.00,18.6,18.6,"22:31:12",1
"23/11/06","22:50",0.2,19.3,96.4,1005.7,301.5,0.5,1.0,290.4,0.00,18.8,18.6,"22:45:20",1
"23/11/06","23:00",0.0,19.3,96.4,1005.5,282.0,0.5,0.9,261.8,0.00,18.8,18.5,"22:55:44",1
"23/11/06","23:10",0.2,19.4,96.5,1005.0,299.4,0.5,0.9,318.3,0.00,18.9,18.6,"23:02:16",1
"23/11/06","23:20",0.0,19.5,96.5,1005.0,270.1,0.2,0.8,30.6,0.00,19.0,18.5,"23:13:44",1
"23/11/06","23:30",0.0,19.5,96.5,1005.2,325.3,0.8,1.4,340.9,0.00,19.0,18.4,"23:27:12",1
"23/11/06","23:40",0.2,19.4,96.6,1005.0,332.0,0.8,1.8,339.4,0.00,18.9,18.6,"23:31:12",1
"23/11/06","23:50",0.2,19.5,96.6,1004.5,323.5,0.5,1.2,334.8,0.00,19.0,18.4,"23:42:56",1
"23/11/06","24:00",0.0,19.5,96.6,1004.5,264.3,0.3,1.0,341.1,0.00,19.0,18.6,"23:59:04",1
